This is the latest recevied weather packets stored in our database for station/object DL6JOE-10. If no packets are shown the sender has not sent any weather packets the latest 10 day(s).
| Time | Temp. | Humidity | Pressure | Rain* | Wind** | Luminosity | Snow |
|---|---|---|---|---|---|---|---|
| 1777623664 | 16.11° C | 31% | 972.9 hPa | - | - | - | - |
| 1777622764 | 15° C | 31% | 973 hPa | - | - | - | - |
| 1777621864 | 15° C | 32% | 973 hPa | - | - | - | - |
| 1777620964 | 14.44° C | 32% | 972.9 hPa | - | - | - | - |
| 1777620064 | 12.78° C | 34% | 972.9 hPa | - | - | - | - |
| 1777619164 | 12.22° C | 34% | 972.8 hPa | - | - | - | - |
| 1777618264 | 11.67° C | 34% | 972.8 hPa | - | - | - | - |
| 1777617364 | 10.56° C | 35% | 972.7 hPa | - | - | - | - |
| 1777616463 | 9.44° C | 35% | 972.9 hPa | - | - | - | - |
| 1777615563 | 9.44° C | 36% | 972.8 hPa | - | - | - | - |
| 1777614663 | 8.89° C | 36% | 972.8 hPa | - | - | - | - |
| 1777613763 | 8.33° C | 35% | 972.6 hPa | - | - | - | - |
| 1777612863 | 8.33° C | 35% | 972.4 hPa | - | - | - | - |
| 1777611963 | 8.33° C | 35% | 972.3 hPa | - | - | - | - |
| 1777611063 | 8.33° C | 35% | 972.2 hPa | - | - | - | - |
| 1777610163 | 8.33° C | 34% | 972.2 hPa | - | - | - | - |
| 1777609263 | 8.33° C | 34% | 972.1 hPa | - | - | - | - |
| 1777608363 | 8.33° C | 34% | 971.9 hPa | - | - | - | - |
| 1777607463 | 8.89° C | 33% | 972 hPa | - | - | - | - |
| 1777606563 | 8.89° C | 33% | 972 hPa | - | - | - | - |
| 1777605662 | 8.89° C | 33% | 971.9 hPa | - | - | - | - |
| 1777604762 | 8.89° C | 33% | 972 hPa | - | - | - | - |
| 1777603862 | 9.44° C | 33% | 971.9 hPa | - | - | - | - |
| 1777602962 | 9.44° C | 33% | 972 hPa | - | - | - | - |
| 1777602062 | 9.44° C | 33% | 971.9 hPa | - | - | - | - |
* Rain since midnight (hover to see other rain measurements)
** Current wind speed in m/s (hover to see current wind gust speed)